Location: Grums
(59.3529°N, 13.1129°E)
Time: 19:53:44
(UTC+01:00)

AIST 2D - Visible Passes

Search period start: 07 December 2021 00:00
Search period end: 17 December 2021 00:00
Orbit: 445 x 462 km, 97.1° (Epoch: 07 December)

Date Brightness Start Highest point End Pass type
(mag) Time Alt. Az. Time Alt. Az. Time Alt. Az.
07 Dec ? 07:24:12 10° E 07:26:26 17° NE 07:28:41 10° NNE visible
09 Dec ? 07:48:24 10° ESE 07:51:15 25° ENE 07:54:06 10° N visible
10 Dec ? 07:15:40 10° E 07:17:36 15° NE 07:19:32 10° NNE visible
12 Dec ? 07:39:40 10° ESE 07:42:20 22° ENE 07:45:00 10° N visible
13 Dec ? 07:07:09 10° E 07:08:42 13° NE 07:10:15 10° NNE visible
15 Dec ? 07:30:55 10° ESE 07:33:22 19° ENE 07:35:48 10° N visible
16 Dec ? 06:58:45 10° ENE 06:59:44 11° NE 07:00:43 10° NNE visible
